Location: Okie-Tex Star Party
(36.8978°N, 102.9520°W)
Time: 22:02:56
(UTC-06:00)

Daily predictions for brighter satellites

Satellite Brightness Start Highest point End
(mag) Time Altitude Azimuth Time Altitude Azimuth Time Altitude Azimuth
Cosmos 1833 Rocket 3.5 18:06:59 10° N 18:11:47 28° ENE 18:16:32 10° ESE
Cosmos 2346 Rocket 4.5 18:07:08 10° N 18:13:17 73° E 18:19:29 10° SSE
Cosmos 2221 Rocket 4.5 18:11:37 10° SSE 18:15:21 28° E 18:19:08 10° NNE
Cosmos 1703 Rocket 3.9 18:11:20 10° SSE 18:15:36 47° E 18:19:53 10° NNE
Cosmos 2297 4.1 18:11:18 10° S 18:16:40 44° ESE 18:22:04 10° NE
OAO 3 Rocket 4.5 18:12:41 10° SW 18:16:58 31° SSE 18:21:18 10° E
Tsikada Rocket 4.3 18:10:56 10° N 18:17:05 74° W 18:23:14 10° S
Meteor 1-14 Rocket 4.2 18:13:14 10° N 18:18:52 71° E 18:24:23 10° SSE
CZ-2C R/B 4.0 18:15:12 10° SSW 18:19:52 40° W 18:24:41 10° NNW
Cosmos 2278 Rocket 2.6 18:14:21 10° SSW 18:20:00 68° WNW 18:25:41 10° NNE
CORIOLIS 4.2 18:15:43 10° SSE 18:21:06 65° ENE 18:26:29 10° N
Meteor 1-28 Rocket 3.1 18:26:03 10° NNE 18:29:46 89° E 18:33:29 10° SSW
Cosmos 1763 Rocket 3.7 18:25:46 10° NNW 18:30:57 75° WSW 18:36:02 10° S
IRS-1A Rocket 4.3 18:26:12 10° SSE 18:31:57 65° ENE 18:37:37 10° N
BREEZE-M R/B 3.0 18:30:11 10° NW 18:32:51 40° NE 18:37:03 10° ESE
GPS 2-05 Rocket1 3.6 18:30:08 10° SW 18:33:03 35° SSE 18:35:12 16° ESE
Cosmos 1606 2.6 18:30:25 10° S 18:34:09 68° E 18:37:55 10° NNE
Cosmos 44 Rocket 4.4 18:30:15 10° N 18:34:16 25° NE 18:37:32 13° E
CZ-2C R/B 3.7 18:30:04 10° NNE 18:34:36 86° ESE 18:39:10 10° SSW
Cosmos 1441 Rocket 4.4 18:31:34 10° SE 18:34:47 24° E 18:36:58 15° NE
Okean 2 Rocket 3.9 18:31:05 10° NNE 18:35:03 29° ENE 18:38:59 10° SE
Cosmos 304 Rocket 4.3 18:33:44 10° NNW 18:38:28 62° WSW 18:43:11 10° S
Cosmos 405 4.3 18:36:38 10° NNE 18:39:24 20° ENE 18:42:08 10° SE
Cosmos 1484 Rocket 3.6 18:37:47 10° S 18:41:32 54° W 18:45:24 10° NNW
Landsat 4 3.6 18:38:16 10° NNE 18:42:05 88° ESE 18:45:53 10° SSW
Cosmos 1908 Rocket 3.7 18:38:51 10° N 18:43:11 77° W 18:47:29 10° S
CZ-4 R/B 1.4 18:40:02 10° S 18:43:53 77° WSW 18:47:44 10° NNW
MTI 3.6 18:41:13 10° NNE 18:44:27 76° ESE 18:47:39 10° S
SKYMED 2 3.6 18:41:14 10° NNE 18:45:32 59° E 18:49:48 10° S
SL-27 R/B 2.3 18:42:30 10° NNW 18:45:51 87° WSW 18:49:12 10° SSE
Cosmos 1464 Rocket 3.9 18:41:42 10° S 18:47:42 65° E 18:53:47 10° NNE
EO 1 Del DPAF 3.2 18:44:11 10° NNE 18:47:58 59° ESE 18:51:43 10° S
CZ-4 R/B 4.3 18:46:55 10° SSE 18:51:04 79° ENE 18:55:14 10° N
MOS 1 4.3 18:47:21 10° SSE 18:52:57 63° ENE 18:58:36 10° N
Cosmos 540 Rocket 3.4 18:49:15 10° NNW 18:54:24 66° ENE 18:59:30 10° SSE
METEOR-M 4.0 18:49:15 10° SSE 18:54:33 74° ENE 18:59:54 10° N
Cosmos 968 Rocket 3.9 18:52:04 10° S 18:56:51 40° E 18:59:38 22° NE
Cosmos 1503 Rocket 4.2 18:52:26 10° SSW 18:57:42 75° WNW 19:02:56 10° NNE
Cosmos 44 3.6 18:53:40 10° NNW 18:58:09 42° NE 19:01:17 19° ESE
Ariane Rocket 4.5 18:54:19 10° SSW 18:59:04 40° W 19:03:51 10° NNW
ERS-2 2.0 18:56:28 10° SSE 19:00:08 87° ENE 19:03:50 10° NNW
Cosmos 2082 Rocket 2.1 18:56:44 10° NNW 19:02:26 73° ENE 19:08:03 10° SSE
Meteor 2-6 Rocket 4.1 18:58:05 10° S 19:03:30 89° W 19:09:06 10° N
USA 234 3.2 18:58:41 19° NE 19:03:36 73° SE 19:10:06 10° SW
Okean 1-7 3.4 18:59:30 10° SSW 19:03:50 68° W 19:08:13 10° N
Cosmos 1602 3.8 19:00:39 10° N 19:04:24 51° E 19:08:08 10° SSE
Sich 1 Rocket 4.5 19:00:49 10° NNW 19:05:08 52° W 19:09:28 10° S
Cosmos 1782 4.0 19:04:42 10° SSW 19:08:32 43° W 19:12:22 10° N
Cosmos 405 Rocket 2.5 19:05:20 10° S 19:09:08 89° ESE 19:11:47 19° N
ALOS 2.2 19:04:55 10° SSE 19:09:30 62° ENE 19:14:08 10° N
Cosmos 836 Rocket 4.5 19:06:23 10° NNW 19:11:40 88° WSW 19:16:56 10° SSE
DMSP B5D1-3 4.4 19:09:41 10° NNE 19:14:51 73° ESE 19:19:58 10° S
Cosmos 1633 4.3 19:18:17 10° NNW 19:21:38 34° W 19:24:58 10° SSW
FengYun 1-2 T 4.4 19:18:46 10° SE 19:23:57 44° ENE 19:29:11 10° N
BREEZE-M DEB (TANK) 4.5 19:23:33 10° NNW 19:24:07 16° NNW 19:24:07 16° NNW
YAOGAN 1 4.4 19:26:56 10° SSW 19:30:48 32° W 19:34:41 10° NNW
COSMO-SKYMED 1 4.0 19:29:31 10° N 19:33:31 37° WNW 19:37:30 10° SW
Meteor 1-27 Rocket 4.0 19:30:27 10° SSW 19:36:20 75° W 19:42:18 10° N
FENGYUN 3A 3.8 19:31:54 10° S 19:37:18 75° WSW 19:42:44 10° NNW
Gblst 52 Del rocket 4.2 19:34:47 10° SSW 19:40:13 61° SE 19:40:47 58° ESE
CZ-4C R/B 2.9 19:33:25 10° NNW 19:40:38 60° NE 19:43:23 41° ESE
Tiangong 1 3.8 19:39:16 10° WSW 19:39:51 15° WSW 19:39:51 15° WSW
SPOT 3 Rocket 4.2 19:37:30 10° S 19:42:36 55° W 19:47:43 10° NNW
Cosmos 783 Rocket 4.4 19:37:17 10° NNW 19:42:38 88° ENE 19:46:18 21° SSE
USA 229 DEB 3.5 19:44:44 10° SSW 19:51:26 75° ESE 19:52:44 59° NE
USA 229 3.5 19:44:50 10° SSW 19:51:32 75° ESE 19:52:47 60° ENE
Cosmos 2369 Rocket 3.2 19:50:05 10° S 19:53:19 33° SSE 19:53:19 33° SSE
Cosmos 1833 Rocket 4.1 19:50:37 10° NW 19:55:44 37° WSW 20:00:50 10° S
OAO 3 Rocket 3.7 19:55:17 10° WSW 19:59:21 54° SW 19:59:21 54° SW
Cosmos 1634 Rocket 4.1 19:55:07 10° S 19:59:54 55° SSE 19:59:54 55° SSE
Nadezhda 4 Rocket 4.2 19:55:22 10° NNW 20:01:26 67° W 20:07:28 10° S
Timation 2 Rocket 4.1 20:08:42 10° NNW 20:15:26 76° WSW 20:16:18 66° SSW
Thor Agena Rocket 4.2 20:17:07 52° W 20:17:07 52° W 20:21:46 10° SSW
Cosmos 1092 Rocket 4.1 20:13:28 10° NNW 20:19:36 70° W 20:25:44 10° S
USA 234 4.4 20:46:02 34° NNW 20:46:13 34° NNW 20:51:57 10° W
CZ-4C R/B 4.4 21:22:40 10° NW 21:28:42 30° WSW 21:28:42 30° WSW
